| time (UTC) | temp F | wind direction | speed MPH | gust MPH | rain 1hr in | rain 24hr in | rain mn in | humidity % | barometer mb |
| 20260504183100 | 74 | 205 | 8.0 | 14.0 | 0.00 | 0.00 | 0.00 | 38 | 1014.9 |
| 20260504180352 | 73 | 254 | 7.0 | 18.0 | 0.00 | 0.00 | 0.00 | 44 | 1015.4 |
| 20260504180034 | 73 | 213 | 8.0 | 18.0 | 0.00 | 0.00 | 0.00 | 42 | 1015.3 |
| 20260504173030 | 72 | 285 | 9.0 | 18.0 | 0.00 | 0.00 | 0.00 | 41 | 1015.5 |
| 20260504170405 | 71 | 236 | 8.0 | 18.0 | 0.00 | 0.00 | 0.00 | 44 | 1016.0 |
| 20260504160334 | 69 | 213 | 8.0 | 17.0 | 0.00 | 0.00 | 0.00 | 50 | 1016.4 |
| 20260504150340 | 66 | 257 | 5.0 | 12.0 | 0.00 | 0.00 | 0.00 | 52 | 1017.1 |
| 20260504140431 | 63 | 233 | 3.0 | 15.0 | 0.00 | 0.00 | 0.00 | 58 | 1017.3 |
| 20260504130338 | 59 | 276 | 5.0 | 15.0 | 0.00 | 0.00 | 0.00 | 60 | 1018.0 |
| 20260504110332 | 53 | 215 | 8.0 | 13.0 | 0.00 | 0.00 | 0.00 | 64 | 1017.6 |
| 20260504100328 | 53 | 214 | 6.0 | 13.0 | 0.00 | 0.00 | 0.00 | 62 | 1017.5 |
| 20260504080312 | 54 | 221 | 8.0 | 19.0 | 0.00 | 0.00 | 0.00 | 58 | 1018.3 |
| 20260504070351 | 54 | 225 | 9.0 | 17.0 | 0.00 | 0.00 | 0.00 | 59 | 1019.1 |
| 20260504050332 | 53 | 194 | 8.0 | 13.0 | 0.00 | 0.00 | 0.00 | 59 | 1020.6 |
| 20260504043030 | 53 | 194 | 4.0 | 10.0 | 0.00 | 0.00 | 0.00 | 60 | 1020.8 |
| 20260504040346 | 52 | 207 | 2.0 | 7.0 | 0.00 | 0.00 | 0.00 | 61 | 1021.0 |
| 20260504040010 | 51 | 207 | 3.0 | 6.0 | 0.00 | 0.00 | 0.00 | 61 | 1021.1 |
| 20260504033035 | 51 | 234 | 3.0 | 8.0 | 0.00 | 0.00 | 0.00 | 65 | 1021.4 |
| 20260504030414 | 52 | 261 | 2.0 | 8.0 | 0.00 | 0.00 | 0.00 | 67 | 1021.8 |
| 20260504030034 | 52 | 279 | 3.0 | 8.0 | 0.00 | 0.00 | 0.00 | 67 | 1021.8 |
| 20260504023012 | 54 | 240 | 3.0 | 7.0 | 0.00 | 0.00 | 0.00 | 52 | 1021.8 |
| 20260504020348 | 54 | 212 | 3.0 | 7.0 | 0.00 | 0.00 | 0.00 | 51 | 1021.8 |
| 20260504020019 | 54 | 215 | 2.0 | 6.0 | 0.00 | 0.00 | 0.00 | 51 | 1021.7 |
| 20260504013016 | 55 | 252 | 3.0 | 10.0 | 0.00 | 0.00 | 0.00 | 50 | 1021.4 |
| 20260504010319 | 56 | 221 | 5.0 | 11.0 | 0.00 | 0.00 | 0.00 | 48 | 1021.3 |
| 20260504003024 | 58 | 240 | 4.0 | 12.0 | 0.00 | 0.00 | 0.00 | 46 | 1021.2 |
| 20260504000409 | 59 | 360 | 6.0 | 14.0 | 0.00 | 0.00 | 0.00 | 46 | 1021.1 |
| 20260504000326 | 59 | 360 | 6.0 | 14.0 | 0.00 | 0.00 | 0.00 | 46 | 1021.1 |
| 20260504000042 | 59 | 215 | 6.0 | 18.0 | 0.00 | 0.00 | 0.00 | 46 | 1021.2 |
| 20260503233047 | 60 | 259 | 7.0 | 17.0 | 0.00 | 0.00 | 0.00 | 43 | 1021.2 |
| 20260503230343 | 60 | 248 | 9.0 | 13.0 | 0.00 | 0.00 | 0.00 | 43 | 1021.3 |
| 20260503230105 | 61 | 229 | 7.0 | 16.0 | 0.00 | 0.00 | 0.00 | 44 | 1021.3 |
| 20260503223021 | 62 | 203 | 8.0 | 18.0 | 0.00 | 0.00 | 0.00 | 42 | 1021.4 |
| 20260503220322 | 62 | 227 | 5.0 | 15.0 | 0.00 | 0.00 | 0.00 | 42 | 1021.5 |
| 20260503220014 | 62 | 244 | 4.0 | 17.0 | 0.00 | 0.00 | 0.00 | 42 | 1021.5 |
| 20260503213038 | 61 | 263 | 7.0 | 18.0 | 0.00 | 0.00 | 0.00 | 44 | 1021.5 |
| 20260503210311 | 61 | 289 | 10.0 | 18.0 | 0.00 | 0.00 | 0.00 | 42 | 1021.4 |
| 20260503210036 | 62 | 254 | 6.0 | 15.0 | 0.00 | 0.00 | 0.00 | 43 | 1021.3 |
| 20260503203033 | 62 | 272 | 7.0 | 22.0 | 0.00 | 0.00 | 0.00 | 44 | 1021.6 |
| 20260503200324 | 62 | 290 | 8.0 | 21.0 | 0.00 | 0.00 | 0.00 | 45 | 1022.0 |
| 20260503200047 | 62 | 273 | 6.0 | 21.0 | 0.00 | 0.00 | 0.00 | 45 | 1022.1 |
| 20260503193042 | 62 | 234 | 12.0 | 24.0 | 0.00 | 0.00 | 0.00 | 41 | 1022.5 |
| 20260503190316 | 61 | 333 | 11.0 | 20.0 | 0.00 | 0.00 | 0.00 | 41 | 1023.0 |
| 20260503190056 | 61 | 302 | 8.0 | 20.0 | 0.00 | 0.00 | 0.00 | 40 | 1023.0 |